Zurück zum Katalog

SL-8 R/B

AktivPO
NORAD 24955·ROCKET BODY·🇷🇺 Russia

Gestartet Sep 23, 1997 von Plesetsk Cosmodrome

Loading…

Nächste Überflüge (nächste 24 Stunden)

TLE

AktuellSource: Space-Track

Epoche: Sep 14, 2026, 10:04 UTC

1 24955U 97052C   26257.41993839  .00000186  00000-0  15849-3 0  9991
2 24955  82.9157 254.6069 0028944 335.0459  24.9300 13.81948822460731

Verfolge SL-8 R/B in Echtzeit mit AllMySat

Download on the App Store